[[{"header":{"parameterUnit":"m.s-1","parameterCategory":2,"la1":30.2991,"la2":30.254,"lo1":-89.0895,"lo2":-89.0444,"dy":0.0017,"dx":0.0017,"nx":28,"ny":28,"refTime":"2025-05-26T09:00:00:Z","depth":"0","parameterNumber":2,"parameterNumberName":"U-component_of_CURRENTS"},"data":[0,0,0,0,0,0,0,0,0,0,0,0,0,0,0,0,0,0,0,0,0,0,0,0,0,0,0,0,0,0,0,0,0,0,0,0,0,0,0,0,0,0,0,0,0,0,0,0,0,0,0,0,0,0,0,0,0,0,0.3628,0.3629,0,0.3646,0.3646,0.3646,0.3625,0.3624,0.3624,0.3623,0.3615,0.3615,0.3615,0,0,0,0,0,0,0,0,0,0,0,0,0,0.3591,0.3592,0.3628,0.3629,0.3629,0.3646,0.3646,0.3646,0.3625,0.3624,0.3624,0.3623,0.3614,0.3615,0.3615,0,0,0,0,0,0,0,0,0,0,0,0,0,0.3605,0.3592,0.3628,0.3623,0.3623,0.3646,0.3646,0.3646,0.3625,0.3624,0.3623,0.3623,0.3614,0.3615,0.3615,0.3633,0,0,0.3616,0.3616,0,0,0,0,0,0,0,0,0.3605,0.3606,0.3623,0.3623,0.3623,0.3635,0.363,0.3641,0.3625,0.3621,0.3623,0.3622,0.3621,0.3621,0.3623,0.3633,0.3632,0.3616,0.3617,0.3617,0.3617,0,0,0,0,0,0,0,0.3604,0.3606,0.3632,0.3624,0.3624,0.3625,0.3625,0.3632,0.3623,0.3622,0.3621,0.3627,0.3621,0.3622,0.3622,0.3632,0.3616,0.3617,0.3617,0.3617,0.3706,0.3708,0,0,0,0,0,0,0.3607,0.3605,0.3632,0.3633,0.3615,0.3626,0.3627,0.363,0.3623,0.3623,0.3628,0.3626,0.3622,0.3622,0.3622,0.3678,0.3617,0.3617,0.3617,0.3704,0.3706,0.3709,0,0,0,0,0,0,0.3606,0.3609,0.3631,0.3622,0.3625,0.3628,0.3631,0.363,0.3638,0.3629,0.3627,0.3637,0.3621,0.3621,0.3643,0.3676,0.3617,0.3618,0.3701,0.3705,0.3708,0.3768,0,0,0,0,0,0,0.3605,0.3609,0.3612,0.3622,0.3626,0.3657,0.3632,0.3631,0.3644,0.3642,0.3636,0.3634,0.3621,0.3643,0.3644,0.3675,0.3618,0.3699,0.3703,0.3707,0.3763,0.3773,0.3781,0,0,0,0,0,0.3604,0.3614,0.3612,0.3615,0.3629,0.3658,0.366,0.3657,0.3645,0.3658,0.3657,0.3634,0.3669,0.3645,0.3645,0.3678,0.3697,0.3702,0.3706,0.3759,0.3771,0.3781,0,0,0,0,0,0,0.3597,0.3613,0.3611,0.3624,0.3645,0.3656,0.3667,0.3666,0.3675,0.367,0.3656,0.3655,0.369,0.368,0.3654,0.3719,0.3682,0.3687,0.3722,0.3733,0.3742,0.3758,0.3618,0,0,0,0,0,0.3599,0.3611,0.3629,0.3641,0.3653,0.3662,0.3672,0.3674,0.3684,0.3686,0.3683,0.3689,0.3711,0.3717,0.3728,0.3759,0.3789,0.3785,0.3793,0.3801,0.3817,0.391,0.3929,0.3724,0.3724,0.3724,0,0,0.36,0.3611,0.3616,0.3641,0.3653,0.3679,0.3665,0.3688,0.3711,0.3685,0.3711,0.3719,0.3727,0.3764,0.3779,0.3759,0.3874,0.3807,0.3813,0.3825,0.3917,0.3937,0.3955,0.3728,0.3727,0.3727,0,0,0.3611,0.362,0.3634,0.3656,0.3683,0.3696,0.3707,0.3726,0.3736,0.3764,0.3762,0.3796,0.3805,0.3834,0.3846,0.3915,0.392,0.3914,0.3968,0.4058,0.4076,0.4092,0.4151,0.4172,0.3916,0.3916,0.3916,0,0.361,0.3626,0.3645,0.3669,0.3687,0.3707,0.3731,0.3756,0.3779,0.3805,0.3778,0.3846,0.3844,0.3922,0.3941,0.3936,0.3977,0.3921,0.4071,0.4087,0.4103,0.4159,0.4181,0.392,0.3919,0.3919,0.3919,0,0.3632,0.3648,0.3664,0.3698,0.3727,0.3752,0.3791,0.3824,0.3833,0.3859,0.3928,0.394,0.3986,0.3993,0.3981,0.4096,0.4087,0.4072,0.4042,0.4127,0.4181,0.4203,0.3925,0.3923,0.3922,0.3922,0,0,0.3612,0.3665,0.3668,0.3682,0.374,0.376,0.3825,0.3887,0.3942,0.3967,0.4052,0.4081,0.41,0.4118,0.4126,0.4194,0.4326,0.4179,0.4182,0.4235,0.4518,0.4442,0.4458,0.4342,0.4347,0.435,0.4509,0,0.3617,0.3653,0.3686,0.3726,0.3747,0.3799,0.3863,0.3928,0.3985,0.408,0.4128,0.4207,0.4147,0.4189,0.4249,0.433,0.4388,0.4283,0.4431,0.4435,0.4355,0.4483,0.4318,0.4441,0.4531,0.4534,0.4537,0,0.3615,0.3641,0.3673,0.3736,0.3753,0.3787,0.3893,0.3953,0.4103,0.4162,0.4256,0.4312,0.4436,0.4371,0.453,0.4469,0.4495,0.4532,0.4539,0.4464,0.4401,0.4373,0.4478,0.4413,0.4571,0.4568,0.4566,0,0.3569,0.3625,0.3643,0.3663,0.3749,0.3781,0.3836,0.397,0.4062,0.4238,0.4355,0.4466,0.4578,0.4635,0.4693,0.4638,0.4868,0.4801,0.4747,0.4741,0.4628,0.4604,0.4684,0.4906,0.4905,0.4905,0.4904,0,0.3546,0.3558,0.3617,0.3625,0.3672,0.3746,0.384,0.3928,0.4116,0.4266,0.4393,0.4548,0.4658,0.4792,0.4786,0.4853,0.4942,0.4794,0.4798,0.4641,0.4618,0.4574,0.4523,0.4911,0.4909,0.4908,0.4907,0,0.3483,0.3522,0.3543,0.3618,0.3645,0.3675,0.3834,0.3937,0.4115,0.4334,0.4415,0.4673,0.4845,0.4922,0.5058,0.4992,0.4923,0.5026,0.4819,0.4794,0.463,0.4586,0.4491,0.4365,0.5001,0.5,0.5,0,0.345,0.3454,0.3515,0.354,0.3567,0.3642,0.3731,0.3909,0.4043,0.4397,0.4518,0.4779,0.4932,0.5109,0.5058,0.5062,0.4923,0.4899,0.4745,0.4638,0.4595,0.4404,0.429,0.4624,0.462,0.4617,0.4615,0,0.3388,0.3407,0.3428,0.3495,0.3559,0.3643,0.3774,0.3876,0.4133,0.4318,0.4566,0.4721,0.4935,0.49,0.4943,0.4906,0.4689,0.4835,0.4802,0.4381,0.4105,0.3978,0.4488,0.4589,0.4592,0.4593,0.4595,0.4596,0.3336,0.3339,0.339,0.3455,0.353,0.3627,0.3652,0.3824,0.3992,0.4208,0.4437,0.4566,0.4718,0.475,0.4704,0.4561,0.4496,0.4418,0.44,0.4237,0.4026,0.4462,0.451,0.4512,0.4514,0.4515,0.4517,0,0.3275,0.3313,0.3366,0.3429,0.3489,0.3555,0.368,0.368,0.3783,0.3995,0.4126,0.4246,0.428,0.436,0.4331,0.418,0.3956,0.4073,0.3795,0.3723,0.421,0.4104,0.3972,0.3972,0.3972,0.3972,0.3972,0.3973,0.3248,0.3267,0.3316,0.3385,0.3425,0.3413,0.3435,0.3432,0.3504,0.3549,0.3593,0.3715,0.4034,0.4176,0.4089,0.3968,0.3699,0.3498,0.3503,0.3898,0.3929,0.3958,0.3851,0.3667,0.3667,0.286,0.2854,0.285]},{"header":{"parameterUnit":"m.s-1","parameterCategory":2,"la1":30.2991,"la2":30.254,"lo1":-89.0895,"lo2":-89.0444,"dy":0.0017,"dx":0.0017,"nx":28,"ny":28,"refTime":"2025-05-26T09:00:00:Z","depth":"0","parameterNumber":3,"parameterNumberName":"V-component_of_CURRENTS"},"data":[0,0,0,0,0,0,0,0,0,0,0,0,0,0,0,0,0,0,0,0,0,0,0,0,0,0,0,0,0,0,0,0,0,0,0,0,0,0,0,0,0,0,0,0,0,0,0,0,0,0,0,0,0,0,0,0,0,0,0.0321,0.0321,0,0.0258,0.0257,0.0257,0.0211,0.0211,0.0211,0.021,0.0132,0.013,0.0128,0,0,0,0,0,0,0,0,0,0,0,0,0,0.0344,0.0344,0.0321,0.0321,0.032,0.0258,0.0257,0.0256,0.0211,0.0211,0.0211,0.021,0.0133,0.013,0.0128,0,0,0,0,0,0,0,0,0,0,0,0,0,0.0311,0.0344,0.0322,0.0292,0.0288,0.0259,0.0257,0.0256,0.0211,0.0211,0.021,0.021,0.0133,0.0131,0.0128,0.0116,0,0,0.0119,0.0118,0,0,0,0,0,0,0,0,0.0313,0.031,0.0297,0.0294,0.029,0.0244,0.0236,0.0209,0.0211,0.0238,0.021,0.021,0.017,0.0164,0.015,0.0113,0.0109,0.0119,0.0117,0.0116,0.0115,0,0,0,0,0,0,0,0.0315,0.0312,0.0295,0.0296,0.0292,0.0261,0.0256,0.0231,0.0205,0.0236,0.0233,0.0229,0.0167,0.0153,0.0148,0.0108,0.0119,0.0116,0.0115,0.0114,0.0073,0.0073,0,0,0,0,0,0,0.033,0.0315,0.0297,0.0293,0.0303,0.0261,0.0256,0.0257,0.0205,0.0198,0.0229,0.0227,0.0158,0.0151,0.0145,0.0157,0.0116,0.0113,0.0112,0.0072,0.0073,0.0074,0,0,0,0,0,0,0.0331,0.033,0.0299,0.0303,0.0298,0.0262,0.0263,0.0256,0.0246,0.0201,0.0192,0.0228,0.0157,0.0149,0.0131,0.0152,0.0112,0.0109,0.0071,0.0072,0.0073,0.0162,0,0,0,0,0,0,0.0332,0.033,0.0335,0.0305,0.0298,0.0294,0.0264,0.0255,0.0245,0.0242,0.0196,0.0188,0.0156,0.0136,0.0128,0.0147,0.0107,0.0071,0.0072,0.0073,0.0158,0.0166,0.0172,0,0,0,0,0,0.0333,0.0349,0.0336,0.0334,0.0307,0.0295,0.0289,0.0261,0.0246,0.0249,0.0217,0.019,0.0138,0.0134,0.0125,0.0144,0.007,0.0071,0.0073,0.0155,0.0164,0.0172,0,0,0,0,0,0,0.036,0.0345,0.033,0.034,0.0323,0.0289,0.0289,0.0268,0.0245,0.0242,0.0196,0.0186,0.0176,0.0147,0.0144,0.0135,0.01,0.01,0.0166,0.0174,0.0181,0.0207,0.0105,0,0,0,0,0,0.0369,0.0377,0.0354,0.036,0.0356,0.0322,0.0313,0.0297,0.0272,0.0261,0.0229,0.0197,0.0174,0.0165,0.0135,0.0133,0.0103,0.0139,0.0146,0.0152,0.0167,0.0143,0.0149,0.0078,0.0078,0.0078,0,0,0.038,0.0373,0.0376,0.0366,0.0349,0.0357,0.0316,0.0313,0.0323,0.0257,0.0257,0.0216,0.0176,0.0171,0.0165,0.0153,0.0155,0.0154,0.016,0.0172,0.0145,0.0152,0.0158,0.0079,0.0079,0.0079,0,0,0.0415,0.0402,0.0422,0.0415,0.0402,0.0384,0.0388,0.0361,0.0353,0.0344,0.0302,0.0279,0.0239,0.0221,0.0205,0.0234,0.0187,0.0222,0.0286,0.0263,0.0268,0.0273,0.0239,0.024,0.0232,0.0232,0.0233,0,0.0429,0.0452,0.0425,0.0444,0.0448,0.0404,0.043,0.0416,0.0386,0.0393,0.0357,0.031,0.0266,0.0276,0.028,0.0252,0.0226,0.026,0.0273,0.0277,0.0281,0.0244,0.0244,0.0237,0.0236,0.0236,0.0235,0,0.0479,0.0496,0.0509,0.0519,0.0519,0.0533,0.0515,0.0517,0.0494,0.0478,0.0473,0.0411,0.0387,0.0367,0.0328,0.0341,0.0309,0.028,0.0256,0.0294,0.0252,0.0251,0.0243,0.0242,0.024,0.0239,0,0,0.0519,0.0542,0.0547,0.0573,0.0564,0.0577,0.0596,0.0609,0.0646,0.0592,0.0633,0.0562,0.0523,0.0503,0.0452,0.0429,0.0414,0.0372,0.0368,0.0346,0.0355,0.0311,0.0304,0.0389,0.0389,0.039,0.0314,0,0.0568,0.0629,0.0622,0.068,0.0711,0.0688,0.072,0.0724,0.0717,0.0743,0.0681,0.0691,0.0579,0.0583,0.0531,0.0459,0.0416,0.0437,0.0315,0.0311,0.0275,0.0303,0.033,0.0264,0.0312,0.0312,0.0312,0,0.0622,0.066,0.0727,0.0783,0.0797,0.082,0.0875,0.0904,0.0919,0.092,0.0897,0.0849,0.0809,0.0714,0.0579,0.0598,0.0478,0.0404,0.0399,0.033,0.0265,0.0234,0.0259,0.0088,0.0309,0.0309,0.0309,0,0.0675,0.0736,0.0797,0.0812,0.0861,0.0894,0.0927,0.0956,0.1028,0.1048,0.1106,0.1007,0.1011,0.0842,0.0651,0.0624,0.0505,0.0448,0.0288,0.0282,0.0268,0.0261,0.0124,0.0344,0.0344,0.0344,0.0344,0,0.0735,0.0785,0.083,0.0865,0.096,0.0969,0.108,0.1101,0.1183,0.1312,0.1209,0.1286,0.1047,0.0944,0.0721,0.0506,0.0544,0.0308,0.0267,0.0297,0.0294,0.0113,-0.0023,0.0341,0.0342,0.0342,0.0343,0,0.0782,0.0805,0.0887,0.0956,0.0985,0.1059,0.1196,0.1303,0.1354,0.1525,0.1554,0.1514,0.138,0.1112,0.0865,0.0634,0.0291,0.0316,0.0359,0.0324,0.0004,-0.0129,-0.0352,-0.0451,0.0136,0.0134,0.0133,0,0.0813,0.0856,0.0956,0.1025,0.1059,0.1175,0.1285,0.1376,0.1521,0.1683,0.1796,0.1721,0.17,0.1294,0.0873,0.0474,0.0258,0.0232,0.0173,-0.0001,-0.0179,-0.0272,-0.0345,0.0183,0.0183,0.0182,0.0182,0,0.0874,0.0902,0.0971,0.112,0.1236,0.1398,0.1565,0.1704,0.1867,0.2015,0.2182,0.2176,0.1799,0.1418,0.086,0.0571,0.0095,0.0207,0.0027,-0.0153,-0.0262,-0.0379,0.0206,0.0177,0.0177,0.0177,0.0178,0.0178,0.0917,0.098,0.1082,0.123,0.1385,0.1621,0.1784,0.1995,0.2243,0.249,0.2448,0.2478,0.1931,0.1177,0.0763,0.0071,0.0028,-0.0127,-0.0274,-0.0349,-0.045,0.0114,0.0035,0.0034,0.0034,0.0034,0.0034,0,0.0976,0.106,0.1198,0.1397,0.161,0.1679,0.1984,0.2181,0.2493,0.2663,0.2773,0.2513,0.1836,0.1145,0.0203,-0.0288,-0.0472,-0.0558,-0.0668,-0.0721,-0.02,-0.0198,-0.0331,-0.0331,-0.033,-0.033,-0.033,-0.033,0.1012,0.1142,0.1224,0.1559,0.1727,0.2031,0.2221,0.2494,0.2678,0.2897,0.2908,0.2865,0.2374,0.066,-0.0433,-0.0701,-0.1033,-0.114,-0.1316,-0.0939,-0.0908,-0.0879,-0.0905,-0.1184,-0.1185,-0.173,-0.1736,-0.1741]}],[{"header":{"parameterUnit":"m.s-1","parameterCategory":2,"la1":30.2991,"la2":30.254,"lo1":-89.0895,"lo2":-89.0444,"dy":0.0017,"dx":0.0017,"nx":28,"ny":28,"refTime":"2025-05-26T09:00:00:Z","depth":"2","parameterNumber":2,"parameterNumberName":"U-component_of_CURRENTS"},"data":[0,0,0,0,0,0,0,0,0,0,0,0,0,0,0,0,0,0,0,0,0,0,0,0,0,0,0,0,0,0,0,0,0,0,0,0,0,0,0,0,0,0,0,0,0,0,0,0,0,0,0,0,0,0,0,0,0,0,0.3448,0.3448,0,0.3465,0.3465,0.3465,0.3453,0.3453,0.3453,0.3453,0.345,0.345,0.3451,0,0,0,0,0,0,0,0,0,0,0,0,0,0.3413,0.3414,0.3448,0.3448,0.3449,0.3465,0.3465,0.3465,0.3453,0.3453,0.3453,0.3452,0.345,0.345,0.3451,0,0,0,0,0,0,0,0,0,0,0,0,0,0.3427,0.3414,0.3448,0.3447,0.3447,0.3465,0.3465,0.3465,0.3454,0.3453,0.3453,0.3452,0.345,0.345,0.3451,0.3461,0,0,0.3452,0.3452,0,0,0,0,0,0,0,0,0.3426,0.3427,0.3447,0.3447,0.3447,0.3459,0.3453,0.3464,0.3454,0.3448,0.3453,0.3452,0.3454,0.3454,0.3454,0.3461,0.3461,0.3452,0.3452,0.3452,0.3452,0,0,0,0,0,0,0,0.3425,0.3427,0.3452,0.3447,0.3448,0.3449,0.345,0.3455,0.3451,0.3449,0.3449,0.3455,0.3453,0.3454,0.3454,0.3461,0.3452,0.3452,0.3452,0.3452,0.3536,0.3538,0,0,0,0,0,0,0.3428,0.3426,0.3452,0.3453,0.3438,0.345,0.3451,0.3454,0.3451,0.3451,0.3455,0.3454,0.3453,0.3454,0.3454,0.3512,0.3452,0.3452,0.3452,0.3534,0.3536,0.3539,0,0,0,0,0,0,0.3428,0.343,0.3451,0.3442,0.3445,0.3451,0.3454,0.3454,0.3466,0.3457,0.3456,0.3468,0.3453,0.3453,0.3476,0.351,0.3452,0.3453,0.3531,0.3535,0.3537,0.3599,0,0,0,0,0,0,0.3426,0.343,0.3435,0.3442,0.3446,0.3474,0.3455,0.3455,0.3471,0.347,0.3468,0.3466,0.3453,0.3476,0.3476,0.3509,0.3453,0.3529,0.3533,0.3536,0.3595,0.3604,0.3612,0,0,0,0,0,0.3425,0.3434,0.3435,0.3438,0.3452,0.3476,0.3478,0.3479,0.3473,0.3486,0.3487,0.3467,0.3501,0.3478,0.3478,0.3512,0.3527,0.3532,0.3536,0.3591,0.3602,0.3612,0,0,0,0,0,0,0.342,0.3435,0.3435,0.3447,0.3467,0.3475,0.3488,0.349,0.35,0.35,0.3487,0.3486,0.3522,0.3512,0.3487,0.355,0.3514,0.3518,0.3555,0.3566,0.3574,0.3589,0.3453,0,0,0,0,0,0.3423,0.3434,0.3451,0.3463,0.3475,0.3484,0.3495,0.3499,0.3509,0.3513,0.3513,0.3521,0.3541,0.3548,0.3558,0.3588,0.3612,0.3614,0.3622,0.363,0.3645,0.3727,0.3744,0.3554,0.3554,0.3553,0,0,0.3425,0.3435,0.3441,0.3464,0.3476,0.35,0.3489,0.3513,0.3536,0.3512,0.3542,0.355,0.3557,0.3593,0.3608,0.3588,0.3696,0.3635,0.3641,0.3653,0.3733,0.3752,0.3768,0.3557,0.3556,0.3556,0,0,0.3435,0.3446,0.3459,0.348,0.3507,0.3519,0.3531,0.3551,0.3564,0.3592,0.3592,0.3627,0.3636,0.3662,0.3672,0.3739,0.3742,0.374,0.3794,0.3873,0.389,0.3904,0.3955,0.3974,0.3743,0.3743,0.3743,0,0.3437,0.3451,0.3469,0.3492,0.3509,0.3531,0.3554,0.3578,0.3604,0.363,0.3608,0.3675,0.3674,0.3745,0.3766,0.3759,0.3796,0.3748,0.3885,0.39,0.3914,0.3963,0.3983,0.3746,0.3746,0.3746,0.3745,0,0.3456,0.3472,0.3487,0.352,0.3547,0.3571,0.3609,0.3643,0.3658,0.3684,0.3752,0.3764,0.3809,0.3817,0.3806,0.3913,0.3903,0.3888,0.3857,0.3938,0.3983,0.4003,0.3751,0.375,0.3749,0.3748,0,0,0.3438,0.3487,0.3491,0.3504,0.356,0.3579,0.3642,0.3701,0.3754,0.3785,0.3861,0.3896,0.3919,0.3935,0.3943,0.4004,0.4125,0.3991,0.3993,0.4038,0.4295,0.422,0.4234,0.4139,0.4143,0.4146,0.4285,0,0.3443,0.3475,0.3507,0.3544,0.3563,0.3615,0.3674,0.3738,0.3794,0.388,0.3929,0.4002,0.3961,0.4001,0.4058,0.4126,0.4182,0.4088,0.4213,0.4217,0.4138,0.4256,0.3885,0.3973,0.4305,0.4308,0.431,0,0.3441,0.3464,0.3494,0.3552,0.3568,0.3601,0.3701,0.3758,0.3896,0.3952,0.4045,0.4096,0.4212,0.4159,0.4307,0.4254,0.4281,0.4311,0.4317,0.4241,0.4179,0.3948,0.3996,0.4343,0.434,0.4338,0.4336,0,0.3397,0.3449,0.3467,0.3485,0.3564,0.3597,0.3651,0.3777,0.3866,0.4021,0.4125,0.4232,0.4331,0.439,0.4448,0.4402,0.4603,0.4544,0.4494,0.4488,0.4193,0.4155,0.4644,0.4644,0.4643,0.4643,0.4643,0,0.3375,0.3387,0.3445,0.3452,0.3496,0.3568,0.3657,0.3738,0.3914,0.4043,0.4164,0.4293,0.4401,0.452,0.4523,0.4586,0.4668,0.4537,0.4537,0.4203,0.4166,0.4494,0.4475,0.4648,0.4647,0.4646,0.4645,0,0.3317,0.3355,0.3374,0.3446,0.3472,0.3503,0.3656,0.3751,0.3918,0.4104,0.4177,0.4401,0.4548,0.4628,0.4749,0.47,0.4749,0.4734,0.4325,0.4275,0.4555,0.4538,0.4709,0.4708,0.4707,0.4707,0.4706,0,0.3285,0.329,0.3349,0.3372,0.3399,0.3474,0.3558,0.3729,0.3847,0.4152,0.4247,0.4476,0.4579,0.4741,0.47,0.4712,0.4773,0.4375,0.4214,0.4589,0.4572,0.4555,0.454,0.3842,0.3834,0.3828,0.3823,0,0.3226,0.3247,0.3264,0.3322,0.3384,0.3461,0.3581,0.3661,0.3891,0.4044,0.4226,0.4336,0.4517,0.4374,0.4433,0.4376,0.4342,0.425,0.478,0.3887,0.3783,0.3762,0.3773,0.3767,0.3772,0.3776,0.3779,0.3782,0.3177,0.3176,0.3218,0.3262,0.3339,0.3408,0.3422,0.355,0.3673,0.3821,0.4035,0.4062,0.413,0.4023,0.3904,0.3809,0.4102,0.3892,0.3906,0.3928,0.3808,0.3708,0.3654,0.3659,0.3663,0.3666,0.367,0,0.311,0.3131,0.3169,0.3207,0.3236,0.3332,0.3421,0.3375,0.3394,0.3562,0.3643,0.3388,0.3336,0.339,0.3164,0.3175,0.3079,0.3036,0.2866,0.2928,0.2981,0.2805,0.2389,0.2384,0.238,0.2376,0,0,0.3078,0.3065,0.3083,0.3083,0.3128,0.3119,0.3121,0.3058,0.3079,0.2975,0.2963,0.3234,0.3334,0.2836,0.2772,0.2539,0.2703,0.2433,0.3473,0.3339,0.3386,0.3504,0.3308,0,0,0,0,0]},{"header":{"parameterUnit":"m.s-1","parameterCategory":2,"la1":30.2991,"la2":30.254,"lo1":-89.0895,"lo2":-89.0444,"dy":0.0017,"dx":0.0017,"nx":28,"ny":28,"refTime":"2025-05-26T09:00:00:Z","depth":"2","parameterNumber":3,"parameterNumberName":"V-component_of_CURRENTS"},"data":[0,0,0,0,0,0,0,0,0,0,0,0,0,0,0,0,0,0,0,0,0,0,0,0,0,0,0,0,0,0,0,0,0,0,0,0,0,0,0,0,0,0,0,0,0,0,0,0,0,0,0,0,0,0,0,0,0,0,0.0232,0.0231,0,0.0171,0.017,0.0169,0.0128,0.0128,0.0127,0.0127,0.0052,0.005,0.0048,0,0,0,0,0,0,0,0,0,0,0,0,0,0.0255,0.0255,0.0232,0.0231,0.0231,0.0171,0.017,0.0169,0.0128,0.0128,0.0127,0.0127,0.0053,0.005,0.0048,0,0,0,0,0,0,0,0,0,0,0,0,0,0.0223,0.0255,0.0232,0.0204,0.0201,0.0171,0.017,0.0169,0.0128,0.0128,0.0127,0.0127,0.0053,0.0051,0.0048,0.0034,0,0,0.0039,0.0038,0,0,0,0,0,0,0,0,0.0225,0.0222,0.0209,0.0206,0.0203,0.0158,0.015,0.0124,0.0128,0.0154,0.0127,0.0127,0.0088,0.0082,0.0069,0.0031,0.0028,0.0039,0.0037,0.0036,0.0035,0,0,0,0,0,0,0,0.0227,0.0224,0.0206,0.0208,0.0205,0.0175,0.0171,0.0145,0.0121,0.0151,0.0149,0.0145,0.0086,0.0071,0.0066,0.0027,0.0039,0.0037,0.0035,0.0034,-0.0009,-0.0009,0,0,0,0,0,0,0.0241,0.0226,0.0208,0.0204,0.0215,0.0175,0.017,0.0171,0.0121,0.0114,0.0145,0.0143,0.0076,0.007,0.0064,0.0074,0.0036,0.0033,0.0032,-0.001,-0.0009,-0.0008,0,0,0,0,0,0,0.0242,0.0241,0.021,0.0215,0.0209,0.0176,0.0177,0.017,0.0162,0.0117,0.0109,0.0144,0.0076,0.0068,0.005,0.007,0.0032,0.003,-0.001,-0.0009,-0.0009,0.0076,0,0,0,0,0,0,0.0243,0.0241,0.0246,0.0216,0.021,0.0205,0.0177,0.0169,0.016,0.0157,0.0114,0.0106,0.0075,0.0055,0.0047,0.0065,0.0027,-0.0011,-0.001,-0.0009,0.0073,0.008,0.0086,0,0,0,0,0,0.0244,0.0259,0.0247,0.0245,0.0218,0.0206,0.02,0.0173,0.0161,0.0163,0.0133,0.0108,0.0056,0.0053,0.0044,0.0062,-0.0012,-0.001,-0.0009,0.007,0.0078,0.0086,0,0,0,0,0,0,0.027,0.0255,0.0242,0.025,0.0234,0.02,0.02,0.0181,0.0159,0.0157,0.0113,0.0103,0.0093,0.0065,0.0063,0.0051,0.0019,0.0018,0.0082,0.0089,0.0096,0.0121,0.0025,0,0,0,0,0,0.0279,0.0286,0.0263,0.0269,0.0265,0.0233,0.0224,0.0209,0.0185,0.0175,0.0144,0.0113,0.009,0.0081,0.0052,0.0048,0.0017,0.0053,0.006,0.0066,0.008,0.005,0.0055,-0.0004,-0.0004,-0.0004,0,0,0.029,0.0283,0.0285,0.0275,0.0259,0.0265,0.0227,0.0224,0.0233,0.0171,0.0171,0.0132,0.0092,0.0086,0.008,0.0068,0.0065,0.0068,0.0073,0.0084,0.0051,0.0057,0.0062,-0.0003,-0.0004,-0.0004,0,0,0.0322,0.031,0.0329,0.0322,0.0309,0.0292,0.0296,0.027,0.0263,0.0254,0.0214,0.0191,0.0152,0.0133,0.0117,0.0143,0.0096,0.0132,0.0192,0.0163,0.0168,0.0172,0.0135,0.0135,0.0141,0.0142,0.0142,0,0.0336,0.0357,0.0332,0.0349,0.0353,0.0311,0.0335,0.0322,0.0294,0.0299,0.0267,0.0218,0.0177,0.0182,0.0187,0.016,0.0132,0.0168,0.0173,0.0176,0.0179,0.014,0.0139,0.0146,0.0145,0.0145,0.0144,0,0.0382,0.0399,0.041,0.042,0.0419,0.0433,0.0415,0.0417,0.0396,0.038,0.0373,0.0312,0.0287,0.0268,0.0233,0.024,0.0209,0.0181,0.0157,0.019,0.0146,0.0144,0.0152,0.015,0.0149,0.0148,0,0,0.042,0.0442,0.0447,0.0471,0.0462,0.0473,0.0491,0.0502,0.0535,0.0483,0.0515,0.0451,0.0414,0.0393,0.0345,0.0318,0.0298,0.0265,0.0261,0.0236,0.0229,0.0192,0.0185,0.0272,0.0272,0.0272,0.019,0,0.0467,0.0524,0.0517,0.0571,0.0601,0.0579,0.0607,0.0609,0.0601,0.0619,0.0557,0.0561,0.0465,0.0465,0.0415,0.0339,0.0296,0.0323,0.0194,0.019,0.016,0.0183,0.0192,0.0118,0.0187,0.0186,0.0186,0,0.0518,0.0554,0.0616,0.0668,0.068,0.0702,0.0751,0.0777,0.0784,0.0781,0.0755,0.0705,0.0661,0.0577,0.0442,0.0464,0.0352,0.0277,0.0272,0.0209,0.0149,0.0096,0.011,0.0181,0.0181,0.0182,0.0182,0,0.0569,0.0626,0.0684,0.0697,0.0742,0.0773,0.0804,0.0826,0.0892,0.0897,0.0942,0.0844,0.0835,0.0679,0.0495,0.0477,0.0343,0.0297,0.0151,0.0147,0.0116,0.0109,0.0195,0.0195,0.0195,0.0196,0.0196,0,0.0626,0.0674,0.0716,0.0749,0.0838,0.0845,0.0949,0.0964,0.1034,0.1142,0.1039,0.1089,0.0863,0.0753,0.0551,0.0346,0.0375,0.017,0.0129,0.0144,0.0141,0.0164,0.0162,0.0192,0.0193,0.0194,0.0194,0,0.0673,0.0694,0.0772,0.0836,0.0863,0.0933,0.1062,0.116,0.1198,0.1338,0.1358,0.129,0.1144,0.0894,0.065,0.0448,0.024,0.0151,0.0178,0.0142,0.0046,0.0049,-0.0005,-0.0007,-0.0009,-0.001,-0.0011,0,0.0702,0.0744,0.0838,0.0903,0.0936,0.1047,0.115,0.1232,0.136,0.1471,0.1562,0.1461,0.1403,0.1011,0.0639,0.028,0.0232,0.0052,0.0013,0.0063,0.0029,0.0034,0.0039,-0.0002,-0.0003,-0.0003,-0.0004,0,0.0761,0.0788,0.0854,0.0993,0.1104,0.1257,0.1409,0.1526,0.166,0.1768,0.1861,0.1817,0.1455,0.1078,0.0586,0.034,0.0106,0.0025,0.0082,0.0051,0.0061,0.0029,0.0034,-0.0011,-0.001,-0.001,-0.0009,-0.0009,0.0802,0.0862,0.0956,0.109,0.124,0.1449,0.1596,0.1759,0.1954,0.2123,0.2065,0.2,0.1578,0.0941,0.0504,0.005,0.0084,-0.0088,-0.0083,-0.0078,-0.006,-0.0053,-0.0143,-0.0143,-0.0143,-0.0143,-0.0143,0,0.0857,0.0931,0.1058,0.1236,0.1425,0.1507,0.1771,0.1911,0.2126,0.2241,0.2289,0.1876,0.1461,0.0978,0.0302,-0.0093,-0.0121,-0.0225,-0.0177,-0.0167,-0.0159,-0.0144,-0.025,-0.0252,-0.0253,-0.0254,0,0,0.0888,0.1001,0.1068,0.1354,0.1515,0.1797,0.196,0.2145,0.2261,0.2317,0.2283,0.2199,0.1601,0.1095,0.0541,0.0145,0.0086,0.0066,0.0194,0.0326,0.0339,-0.0043,-0.0003,0,0,0,0,0]}],[{"header":{"parameterUnit":"m.s-1","parameterCategory":2,"la1":30.2991,"la2":30.254,"lo1":-89.0895,"lo2":-89.0444,"dy":0.0017,"dx":0.0017,"nx":28,"ny":28,"refTime":"2025-05-26T09:00:00:Z","depth":"4","parameterNumber":2,"parameterNumberName":"U-component_of_CURRENTS"},"data":[0,0,0,0,0,0,0,0,0,0,0,0,0,0,0,0,0,0,0,0,0,0,0,0,0,0,0,0,0,0,0,0,0,0,0,0,0,0,0,0,0,0,0,0,0,0,0,0,0,0,0,0,0,0,0,0,0,0,0.2234,0.2235,0,0.2304,0.2305,0.2305,0.2371,0.2372,0.2373,0.2374,0.246,0.2461,0.2463,0,0,0,0,0,0,0,0,0,0,0,0,0,0.2145,0.2146,0.2234,0.2235,0.2236,0.2304,0.2305,0.2305,0.2371,0.2372,0.2373,0.2374,0.246,0.2461,0.2463,0,0,0,0,0,0,0,0,0,0,0,0,0,0.2194,0.2147,0.2234,0.2279,0.2284,0.2304,0.2305,0.2305,0.237,0.2372,0.2373,0.2375,0.2459,0.2461,0.2463,0.2444,0,0,0.2469,0.247,0,0,0,0,0,0,0,0,0.2191,0.2197,0.2271,0.2276,0.2281,0.2332,0.2305,0.2353,0.237,0.2335,0.2374,0.2376,0.2419,0.2425,0.2431,0.2448,0.2452,0.2469,0.247,0.2471,0.2472,0,0,0,0,0,0,0,0.2188,0.2194,0.2259,0.2272,0.2278,0.2292,0.23,0.2314,0.2366,0.2338,0.2344,0.2355,0.2422,0.2428,0.2433,0.2453,0.2469,0.2471,0.2472,0.2473,0.2608,0.261,0,0,0,0,0,0,0.2183,0.2191,0.2257,0.2262,0.2242,0.2292,0.2301,0.2312,0.2366,0.2376,0.2353,0.2358,0.2424,0.2431,0.2437,0.2549,0.2471,0.2473,0.2474,0.2606,0.2609,0.2611,0,0,0,0,0,0,0.2181,0.2188,0.2254,0.223,0.224,0.2292,0.2304,0.2313,0.237,0.2377,0.2388,0.2407,0.2426,0.2434,0.2496,0.2548,0.2474,0.2476,0.2603,0.2607,0.261,0.269,0,0,0,0,0,0,0.2178,0.2187,0.2215,0.2229,0.2241,0.2298,0.2303,0.2313,0.2372,0.238,0.2426,0.2432,0.2428,0.2493,0.2498,0.255,0.2477,0.26,0.2604,0.2609,0.2684,0.2696,0.2706,0,0,0,0,0,0.2174,0.2198,0.2216,0.2226,0.2271,0.2299,0.2307,0.2347,0.2374,0.2404,0.2442,0.2434,0.2525,0.2496,0.2502,0.2555,0.2598,0.2603,0.2608,0.268,0.2694,0.2706,0,0,0,0,0,0,0.2177,0.2208,0.2228,0.2263,0.2296,0.2312,0.2351,0.2375,0.2427,0.2451,0.2458,0.2467,0.2543,0.2538,0.2506,0.2609,0.2563,0.2569,0.2615,0.2629,0.2639,0.2648,0.2479,0,0,0,0,0,0.2189,0.2221,0.2246,0.2282,0.2302,0.2337,0.2364,0.2391,0.2427,0.2454,0.2486,0.2524,0.2559,0.2587,0.2612,0.2663,0.2673,0.2704,0.2715,0.2724,0.2736,0.2801,0.2819,0.2629,0.2629,0.2629,0,0,0.2202,0.2224,0.2245,0.2287,0.2318,0.2351,0.2358,0.2414,0.2456,0.2453,0.2538,0.2565,0.2582,0.2644,0.2678,0.2654,0.2784,0.2731,0.2738,0.2746,0.2809,0.2827,0.2844,0.2633,0.2632,0.2631,0,0,0.2224,0.2265,0.2294,0.2324,0.238,0.2398,0.2425,0.2472,0.2516,0.2581,0.26,0.2664,0.2711,0.2739,0.2754,0.284,0.2839,0.2856,0.2919,0.2983,0.2999,0.3013,0.3048,0.3065,0.2862,0.2862,0.2862,0,0.2243,0.2275,0.2309,0.2342,0.2376,0.2424,0.2462,0.2506,0.2573,0.2618,0.2625,0.2735,0.2753,0.2831,0.2866,0.2865,0.2894,0.2865,0.2997,0.3011,0.3024,0.3056,0.3074,0.2866,0.2866,0.2865,0.2865,0,0.2266,0.2313,0.2337,0.2393,0.2435,0.2479,0.2534,0.26,0.2658,0.2701,0.2809,0.284,0.2909,0.2928,0.2924,0.3034,0.3022,0.3002,0.2961,0.3048,0.3076,0.3093,0.2873,0.2871,0.287,0.2869,0,0,0.225,0.2336,0.235,0.2384,0.2468,0.2496,0.2587,0.2668,0.2739,0.282,0.2909,0.2986,0.3028,0.305,0.3068,0.3123,0.3239,0.3114,0.3115,0.3144,0.3377,0.3155,0.3151,0.3252,0.3255,0.3258,0.3358,0,0.2262,0.2324,0.237,0.2442,0.2476,0.2556,0.2627,0.2718,0.2803,0.2903,0.2976,0.3066,0.3067,0.3118,0.3181,0.3231,0.3288,0.3213,0.3293,0.3295,0.3083,0.3165,0.3269,0.3371,0.3374,0.3377,0.3379,0,0.2257,0.2303,0.2372,0.2465,0.249,0.2551,0.2681,0.2756,0.2905,0.2976,0.3093,0.3151,0.3274,0.3246,0.3391,0.3351,0.3382,0.3402,0.3406,0.3181,0.3103,0.3267,0.3409,0.3407,0.3404,0.3402,0.3401,0,0.2202,0.2299,0.2356,0.2389,0.2503,0.257,0.2649,0.2793,0.287,0.3047,0.312,0.3263,0.3351,0.3427,0.3492,0.3464,0.3622,0.3578,0.3403,0.3387,0.3521,0.3505,0.3674,0.3674,0.3674,0.3673,0.3673,0,0.2164,0.2215,0.2345,0.2372,0.2455,0.2556,0.2666,0.2771,0.2927,0.3021,0.3167,0.3248,0.3409,0.3508,0.354,0.3524,0.3671,0.3427,0.3404,0.3551,0.3537,0.3532,0.3514,0.3677,0.3676,0.3675,0.3675,0,0.2084,0.217,0.2242,0.238,0.2429,0.2497,0.266,0.272,0.2901,0.3031,0.3095,0.3289,0.3413,0.3525,0.3653,0.3562,0.3577,0.3532,0.3694,0.3676,0.3285,0.3271,0.3333,0.3327,0.3321,0.3316,0.3312,0,0.204,0.2074,0.223,0.2268,0.2339,0.2453,0.2509,0.2693,0.2766,0.3022,0.3061,0.3255,0.336,0.3362,0.3495,0.3533,0.3493,0.3466,0.3358,0.3282,0.3255,0.3249,0.3243,0.3302,0.3301,0.3299,0.3298,0,0.1956,0.2039,0.2098,0.2175,0.2246,0.2301,0.2419,0.2459,0.267,0.2861,0.2957,0.3023,0.315,0.3234,0.3292,0.3311,0.346,0.3404,0.3415,0.3313,0.3245,0.3223,0.3223,0.3278,0.3281,0.3282,0.3284,0,0.1903,0.1921,0.2004,0.2041,0.2118,0.2115,0.2204,0.2285,0.2384,0.2683,0.2716,0.2923,0.3128,0.312,0.3177,0.3176,0.3118,0.2996,0.3027,0.3051,0.2909,0.2779,0.266,0,0,0,0,0,0.1834,0.1816,0.1846,0.1866,0.1926,0.1969,0.2108,0.2206,0.2434,0.2432,0.2571,0.2678,0.2762,0.287,0.2813,0.3038,0.312,0.2954,0.2993,0.3166,0.3189,0.3046,0,0,0,0,0,0,0.178,0.1818,0.179,0.1692,0.1677,0.1717,0.1803,0.1961,0.1985,0.2245,0.231,0.2503,0.2629,0.2769,0.2758,0.279,0.2754,0.3096,0.3089,0.3152,0.3174,0.3192,0.3054,0,0,0,0,0]},{"header":{"parameterUnit":"m.s-1","parameterCategory":2,"la1":30.2991,"la2":30.254,"lo1":-89.0895,"lo2":-89.0444,"dy":0.0017,"dx":0.0017,"nx":28,"ny":28,"refTime":"2025-05-26T09:00:00:Z","depth":"4","parameterNumber":3,"parameterNumberName":"V-component_of_CURRENTS"},"data":[0,0,0,0,0,0,0,0,0,0,0,0,0,0,0,0,0,0,0,0,0,0,0,0,0,0,0,0,0,0,0,0,0,0,0,0,0,0,0,0,0,0,0,0,0,0,0,0,0,0,0,0,0,0,0,0,0,0,0.011,0.011,0,0.0072,0.0071,0.0071,0.0044,0.0044,0.0044,0.0044,-0.001,-0.0012,-0.0013,0,0,0,0,0,0,0,0,0,0,0,0,0,0.0122,0.0122,0.011,0.011,0.011,0.0072,0.0071,0.0071,0.0044,0.0044,0.0044,0.0044,-0.001,-0.0011,-0.0013,0,0,0,0,0,0,0,0,0,0,0,0,0,0.0102,0.0122,0.011,0.0093,0.0091,0.0072,0.0071,0.007,0.0044,0.0044,0.0044,0.0044,-0.0009,-0.0011,-0.0013,-0.0024,0,0,-0.002,-0.002,0,0,0,0,0,0,0,0,0.0104,0.0102,0.0096,0.0094,0.0092,0.0064,0.0055,0.0039,0.0044,0.0061,0.0044,0.0044,0.0014,0.001,0.0001,-0.0026,-0.0029,-0.002,-0.0021,-0.0022,-0.0022,0,0,0,0,0,0,0,0.0105,0.0103,0.0094,0.0095,0.0093,0.0074,0.0071,0.0052,0.0037,0.0059,0.0058,0.0055,0.0013,0.0004,0.0,-0.0029,-0.002,-0.0022,-0.0023,-0.0024,-0.0058,-0.0057,0,0,0,0,0,0,0.0115,0.0105,0.0095,0.0093,0.0099,0.0074,0.0071,0.0072,0.0038,0.0033,0.0056,0.0054,0.0007,0.0002,-0.0002,0.0006,-0.0022,-0.0024,-0.0025,-0.0058,-0.0058,-0.0057,0,0,0,0,0,0,0.0115,0.0114,0.0097,0.0098,0.0095,0.0074,0.0075,0.0071,0.0067,0.0035,0.003,0.0057,0.0007,0.0001,-0.0011,0.0003,-0.0025,-0.0027,-0.0058,-0.0058,-0.0057,0.0007,0,0,0,0,0,0,0.0116,0.0115,0.012,0.0099,0.0095,0.0094,0.0076,0.0071,0.0066,0.0064,0.0034,0.0029,0.0006,-0.0008,-0.0013,-0.0001,-0.0028,-0.0059,-0.0058,-0.0058,0.0004,0.001,0.0014,0,0,0,0,0,0.0116,0.0127,0.012,0.0119,0.0103,0.0095,0.0091,0.0074,0.0067,0.0069,0.0049,0.003,-0.0008,-0.0009,-0.0016,-0.0003,-0.0059,-0.0058,-0.0058,0.0002,0.0009,0.0014,0,0,0,0,0,0,0.0133,0.0124,0.0117,0.0124,0.0114,0.0091,0.0092,0.008,0.0066,0.0066,0.0034,0.0027,0.002,-0.0002,-0.0002,-0.0012,-0.0037,-0.0037,0.0011,0.0017,0.0021,0.0039,-0.003,0,0,0,0,0,0.0139,0.0146,0.0131,0.0137,0.0135,0.0114,0.0109,0.01,0.0084,0.0078,0.0056,0.0034,0.0017,0.001,-0.0011,-0.0015,-0.0045,-0.0012,-0.0007,-0.0003,0.0006,-0.0029,-0.0027,-0.0055,-0.0055,-0.0055,0,0,0.0147,0.0143,0.0146,0.0141,0.0131,0.0137,0.0111,0.0111,0.0119,0.0074,0.0077,0.0049,0.0019,0.0014,0.001,-0.0,-0.0012,-0.0002,0.0002,0.0009,-0.0028,-0.0025,-0.0023,-0.0054,-0.0054,-0.0054,0,0,0.0169,0.0163,0.0177,0.0174,0.0168,0.0157,0.0161,0.0144,0.0142,0.0137,0.0109,0.009,0.0064,0.0047,0.0035,0.0053,0.0013,0.0046,0.0088,0.0054,0.0056,0.0057,0.002,0.0017,0.0051,0.0052,0.0052,0,0.0178,0.0195,0.0179,0.0193,0.0199,0.0171,0.0191,0.0183,0.0165,0.0169,0.0147,0.011,0.0081,0.008,0.0085,0.0065,0.0037,0.0071,0.0061,0.0062,0.0062,0.0023,0.002,0.0055,0.0054,0.0054,0.0054,0,0.021,0.0225,0.0234,0.0245,0.0247,0.0259,0.025,0.0253,0.0241,0.0229,0.0222,0.0177,0.0158,0.0143,0.0119,0.0115,0.009,0.0069,0.0049,0.0069,0.0026,0.0022,0.0059,0.0058,0.0057,0.0056,0,0,0.0232,0.0254,0.0259,0.028,0.028,0.0289,0.0306,0.0315,0.0339,0.0302,0.0319,0.0276,0.0249,0.0233,0.0197,0.0165,0.0137,0.0125,0.0122,0.0094,0.0058,0.0039,0.0031,0.0114,0.0114,0.0113,0.0026,0,0.0264,0.0308,0.0308,0.0352,0.0376,0.0366,0.0389,0.0393,0.0388,0.0395,0.0346,0.0343,0.0286,0.0282,0.0239,0.0167,0.0128,0.0162,0.0038,0.0035,0.0019,0.0026,0.0112,0.0022,0.0021,0.002,0.002,0,0.0297,0.0326,0.0377,0.0422,0.0433,0.0455,0.0495,0.0517,0.0516,0.051,0.0488,0.0445,0.0401,0.0346,0.0228,0.0253,0.0164,0.0097,0.0091,0.0049,0.0007,-0.0003,0.0011,0.0011,0.0012,0.0013,0.0013,0,0.0326,0.0376,0.0423,0.0436,0.0477,0.0507,0.0536,0.0554,0.0596,0.0591,0.0603,0.0533,0.051,0.039,0.0243,0.0239,0.0101,0.0076,-0.003,-0.0033,-0.0018,-0.0018,-0.0014,-0.0014,-0.0013,-0.0013,-0.0013,0,0.036,0.0401,0.0446,0.0474,0.0546,0.056,0.0638,0.0654,0.0694,0.0753,0.0673,0.068,0.0521,0.0419,0.0272,0.0108,0.0118,-0.002,-0.0054,0.001,0.0014,-0.0022,-0.0021,-0.0016,-0.0016,-0.0015,-0.0015,0,0.0382,0.0408,0.0473,0.0534,0.0562,0.0619,0.0718,0.0779,0.0799,0.0871,0.0874,0.0799,0.067,0.0488,0.0294,0.016,-0.0006,-0.0072,0.0012,-0.0017,-0.0124,-0.012,-0.0186,-0.0187,-0.0188,-0.0189,-0.019,0,0.0396,0.0429,0.0519,0.0572,0.0606,0.0696,0.0767,0.0828,0.0902,0.0942,0.0979,0.0879,0.08,0.0513,0.0306,0.0022,-0.0027,-0.0125,-0.0127,-0.0114,-0.0141,-0.0134,-0.0128,-0.0192,-0.0192,-0.0193,-0.0193,0,0.0423,0.0455,0.051,0.062,0.0705,0.0811,0.0917,0.0977,0.1058,0.1071,0.1072,0.0924,0.0774,0.0535,0.0308,0.01,-0.0066,-0.0138,-0.0137,-0.014,-0.0122,-0.0146,-0.0139,-0.0197,-0.0196,-0.0196,-0.0196,0,0.0444,0.0488,0.0565,0.0663,0.0776,0.0896,0.0951,0.1039,0.1109,0.1154,0.1149,0.0979,0.089,0.0575,0.0366,0.0158,0.0102,0.0019,0.001,0.0012,0.0085,0.0137,0.0119,0,0,0,0,0,0.0461,0.0513,0.0605,0.0719,0.0837,0.0913,0.1041,0.1092,0.1162,0.1181,0.1176,0.1037,0.0743,0.0609,0.0402,0.032,0.0046,0.0065,-0.0059,-0.0219,-0.0215,-0.0166,0,0,0,0,0,0,0.0473,0.0553,0.06,0.0748,0.0841,0.0984,0.1074,0.1128,0.1139,0.117,0.1021,0.0963,0.0676,0.0867,0.0393,0.0329,0.0215,-0.0066,-0.0071,-0.0222,-0.0218,-0.0214,-0.0162,0,0,0,0,0]}]]